Regional Weather Roundup
Issued by NWS

Home | Current Version | Previous Version | Graphics & Text | Print | Product List | Glossary On
Versions: 1 2 3 4 5 6 7 8 9 10 11 12 13 14 15 16 17 18 19 20 21 22 23 24 25 26 27 28 29 30 31 32 33 34 35 36 37 38 39 40 41 42 43 44 45 46 47 48 49 50
000
ASUS45 KABQ 290401
RWRNM
WEATHER ROUNDUP FOR NEW MEXICO
NATIONAL WEATHER SERVICE ALBUQUERQUE NM
900 PM MST WED JAN 28 2015

NOTE: "FAIR" MEANS FEW OR NO CLOUDS BELOW 12,000 FEET AGL WITH NO
       SIGNIFICANT WEATHER OR OBSTRUCTIONS TO VISION.

      THIS PRODUCT IS RELEASED AS TWO VERSIONS.  ONE VERSION NEAR
      THE TOP OF THE HOUR CONTAINING PRELIMINARY DATA FROM ALBUQUERQUE
      AND OTHER STATIONS.  A FINAL VERSION WITH ADDITIONAL DATA IS
      ISSUED ABOUT 10 MINUTES AFTER THE HOUR.

NMZ501-503-504-510>518-290500-
NORTHWEST PLATEAU/NORTHCENTRAL MOUNTAINS

CITY           SKY/WX    TMP DP  RH WIND       PRES   REMARKS
FARMINGTON     CLEAR     41  27  57 CALM      30.26R
SANTA FE       PTCLDY    42  25  50 CALM      30.26R
TAOS           PTCLDY    34  25  69 SE6       30.28R WCI  29

$$
NMZ402-403-502-505>509-290500-
WESTCENTRAL MOUNTAINS/SOUTHWEST MOUNTAINS

CITY           SKY/WX    TMP DP  RH WIND       PRES   REMARKS
GALLUP         MOCLDY    36  29  75 CALM      30.29R
GRANTS         PTCLDY    31  27  83 CALM      30.29S
SILVER CITY    CLEAR     45  32  61 N8        30.23S

$$
NMZ407-409-411-412-290500-
SOUTHERN DESERTS

CITY           SKY/WX    TMP DP  RH WIND       PRES   REMARKS
DEMING         CLEAR     50  32  50 SW3       30.17R
ALAMOGORDO     PTCLDY    50  32  50 E8        30.17F
T OR C         CLEAR     52  34  50 N6        30.17R

$$
NMZ519>523-290500-
CENTRAL VALLEYS/CENTRAL HIGHLANDS

CITY           SKY/WX    TMP DP  RH WIND       PRES   REMARKS
ALBUQUERQUE    PTCLDY    51  29  42 N10       30.23S
DOUBLE EAGLE   CLEAR     45  28  53 NW9       30.24F
MORIARTY ARPT  FAIR      33  25  72 NE6       30.26S WCI  27
CLINES CORNERS PTCLDY    38  28  67 NW7       30.26R WCI  33
BELEN          FAIR      40  30  68 N5        30.23S
SOCORRO        NOT AVBL

$$
NMZ524>526-539-540-290500-
SOUTHCENTRAL MOUNTAINS

CITY           SKY/WX    TMP DP  RH WIND       PRES   REMARKS
RUIDOSO        PTCLDY    45  28  53 SW9       30.28S

$$
NMZ527>531-290500-
NORTHEAST HIGHLANDS/NORTHEAST PLAINS

CITY           SKY/WX    TMP DP  RH WIND       PRES   REMARKS
LAS VEGAS      PTCLDY    38  25  59 N12       30.24R WCI  30
RATON          MOCLDY    38  25  59 N7        30.23R WCI  33
CLAYTON        CLEAR     45  32  60 N10       30.19R

$$
NMZ532>537-290500-
EASTCENTRAL PLAINS

CITY           SKY/WX    TMP DP  RH WIND       PRES   REMARKS
TUCUMCARI      PTCLDY    47  34  60 E8        30.12R
CANNON AFB     MOCLDY    46  33  60 W5        30.15R
CLOVIS AIRPORT PTCLDY    45  30  57 W7        30.14R

$$
NMZ028-029-538-290500-
SOUTHEAST PLAINS

CITY           SKY/WX    TMP DP  RH WIND       PRES   REMARKS
ROSWELL        PTCLDY    54  38  54 W8        30.13R
ARTESIA        PTCLDY    52  41  66 W16       30.13R
CARLSBAD       PTCLDY    55  38  52 VRB3      30.10S
HOBBS          PTCLDY    48  37  66 W8        30.14R


$$


USA.gov is the U.S. government's official web portal to all federal, state and local government web resources and services.